FENGYUN 3D (43010 NORAD) Tracking and Keplerian Element Data

This shows tracking and keplerian element data for the satellite.

Feedback or suggestion? Click here.




ElementValue
Catalog43010
NameFENGYUN 3D
Epoch Orbit6982
Epoch Day80.78677786
Epoch Year2019
RAAN21.501
Inclination98.7057
Eccentricity0.0001121
Argument of Perigee3.3165
Mean Anonmoly356.8025
Mean Motion14.19716644
Decay Rate8E-08
L11 43010U 17072A 19080.78677786 .00000008 00000-0 24169-4 0 9993
L22 43010 98.7057 21.5010 0001121 3.3165 356.8025 14.19716644 69825

Live tracking and technical data element details for FENGYUN 3D (NORAD 43010). FENGYUN 3D can be tracked NOW for your location showing map with azimuth and elevation plus other details from your city location.

Track the satellite on the map from your city or location and see movement details for azimuth, elevation, latitude, longitude, range, height, and movement on the map or in text.







IsCatalogInMostPopularTable: catalog: 43010, numindb: 223
Update: records affected: 1



GetName: 43010 FENGYUN 3D

Hit Count: updated at: Sat, 23 Mar 2019 02:13:58 GMT